Location: Seattle
(47.6064°N, 122.3308°W)
Time: 18:08:19
(UTC-07:00)

Tiros 1 - Pass Details

Date: 03 August 2021
Orbit: 630 x 663 km, 48.4° (Epoch: 18 September)

Event Time Altitude Azimuth Distance (km) Brightness Sun altitude
Rises 23:26:12 0° 286° (WNW) 2,971 11.2 -20.8°
Reaches altitude 10° 23:28:38 10° 280° (W) 2,052 10.2 -21.0°
Maximum altitude 23:33:06 43° 209° (SSW) 906 7.6 -21.3°
Enters shadow 23:33:10 43° 207° (SSW) 906 7.6 -21.3°
